Weather History for KMIW - February, 2013

Change the Weather History Date:

Monday, February 25, 2013

  Actual Average Record
Temperature  
Mean Temperature 29 °F 27 °F  
Max Temperature 36 °F 36 °F - ()
Min Temperature 22 °F 18 °F - ()
Degree Days  
Heating Degree Days 36 38  
Month to date heating degree days 1022 1057  
Since 1 July heating degree days 4895 5290  
Cooling Degree Days 0 0  
Month to date cooling degree days 0 0  
Year to date cooling degree days 0 0  
Moisture  
Dew Point 25 °F    
Average Humidity 79    
Maximum Humidity 88    
Minimum Humidity 70    
Precipitation  
Precipitation 0.00 in 0.04 in - ()
Month to date precipitation 0.45 0.68  
Sea Level Pressure  
Sea Level Pressure 30.06 in    
Wind  
Wind Speed 6 mph (ENE)    
Max Wind Speed 15 mph    
Max Gust Speed 18 mph    
Visibility 5 miles    
Events      
T = Trace of Precipitation, MM = Missing Value Source: NWS Daily Summary

Daily Weather History Graph

Daily Weather History Graph

Search for Another Location

Airport or City:

Trip Planner

Search our weather history database for the weather conditions in past years. The results will help you decide how hot, cold, wet, or windy it might be!

Date:

Astronomy

Feb. 25, 2013 Rise Set
Actual Time 6:52 AM CST 5:57 PM CST
Civil Twilight 6:24 AM CST 6:25 PM CST
Nautical Twilight 5:52 AM CST 6:57 PM CST
Astronomical Twilight 5:19 AM CST 7:30 PM CST
Moon 6:12 PM CST (2/25) 6:22 AM CST (2/25)
Length of Visible Light 12h 00m
Length of Day
11h 04m
Full, 100% of the Moon is Illuminated
Feb 25
Full
Feb 25
Full
Mar 4
Last Quarter
Mar 11
New
Mar 19
First Quarter

Hourly Weather History & Observations

Time (CST) Temp. Windchill Dew Point Humidity Pressure Visibility Wind Dir Wind Speed Gust Speed Precip Events Conditions
12:53 AM 27.0 °F 21.6 °F 23.0 °F 85% 30.11 in 5.0 mi SE 4.6 mph - N/A   Mostly Cloudy
1:53 AM 26.1 °F 20.5 °F 23.0 °F 88% 30.10 in 5.0 mi SE 4.6 mph - N/A   Overcast
2:53 AM 26.1 °F 20.5 °F 23.0 °F 88% 30.09 in 4.0 mi ENE 4.6 mph - N/A   Overcast
3:53 AM 24.1 °F 16.0 °F 21.0 °F 88% 30.08 in 5.0 mi NNE 6.9 mph - N/A   Mostly Cloudy
4:53 AM 23.0 °F 18.4 °F 19.9 °F 88% 30.10 in 5.0 mi ENE 3.5 mph - N/A   Mostly Cloudy
5:53 AM 25.0 °F 17.1 °F 21.0 °F 85% 30.09 in 5.0 mi ENE 6.9 mph - N/A   Overcast
6:53 AM 25.0 °F 18.1 °F 21.9 °F 88% 30.09 in 5.0 mi ESE 5.8 mph - N/A   Overcast
7:53 AM 25.0 °F - 21.9 °F 88% 30.13 in 3.0 mi Calm Calm - N/A   Overcast
8:53 AM 28.0 °F 24.2 °F 24.1 °F 85% 30.11 in 3.0 mi East 3.5 mph - N/A   Overcast
9:53 AM 32.0 °F - 25.0 °F 75% 30.12 in 4.0 mi Calm Calm - N/A   Haze
10:53 AM 32.0 °F 26.4 °F 26.1 °F 79% 30.11 in 5.0 mi ENE 5.8 mph - N/A   Haze
11:53 AM 33.1 °F 26.1 °F 27.0 °F 78% 30.10 in 4.0 mi East 8.1 mph - N/A   Haze
12:53 PM 35.1 °F 30.1 °F 27.0 °F 72% 30.08 in 6.0 mi East 5.8 mph - N/A   Haze
1:53 PM 36.0 °F 30.3 °F 28.0 °F 73% 30.05 in 6.0 mi ENE 6.9 mph - N/A   Haze
2:53 PM 35.1 °F 28.6 °F 28.9 °F 78% 30.04 in 4.0 mi East 8.1 mph - N/A   Haze
3:53 PM 35.1 °F 29.3 °F 28.9 °F 78% 30.03 in 4.0 mi NE 6.9 mph - N/A   Haze
4:53 PM 35.1 °F 29.3 °F 28.9 °F 78% 30.03 in 4.0 mi NE 6.9 mph - N/A   Haze
5:53 PM 32.0 °F 25.6 °F 28.9 °F 88% 30.03 in 4.0 mi NE 6.9 mph - N/A   Clear
6:53 PM 32.0 °F 24.8 °F 28.0 °F 85% 30.01 in 5.0 mi NE 8.1 mph - N/A   Clear
7:53 PM 30.9 °F 23.5 °F 27.0 °F 85% 30.00 in 5.0 mi ENE 8.1 mph - N/A   Clear
8:53 PM 30.0 °F 22.4 °F 27.0 °F 88% 29.99 in 4.0 mi NE 8.1 mph - N/A   Clear
9:53 PM 30.9 °F 21.7 °F 27.0 °F 85% 29.98 in 5.0 mi NE 11.5 mph - N/A   Clear
10:53 PM 32.0 °F 23.0 °F 27.0 °F 82% 29.95 in 6.0 mi NE 11.5 mph - N/A   Haze
11:53 PM 30.0 °F 21.7 °F 26.1 °F 85% 29.93 in 6.0 mi NE 9.2 mph - N/A   Clear